QPF
0.00 0.00 0.00 0.00 0.00 0.00 0.00 0.00 0.00 0.00 0.00 0.00 0.00 0.00 0.00 0.00 0.00 0.00 0.00 0.00 0.00 0.00 0.01 0.01 0.01 0.02 0.02 0.01 0.01 0.01 0.01 0.01 0.02 0.04 0.09 0.14 0.15 0.17 0.20 0.23 0.23 0.20 0.15 0.09
0.00 0.00 0.00 0.00 0.00 0.00 0.00 0.00 0.00 0.00 0.00 0.00 0.00 0.00 0.00 0.00 0.00 0.00 0.00 0.00 0.00 0.01 0.02 0.02 0.02 0.02 0.01 0.01 0.02 0.02 0.02 0.02 0.05 0.10 0.16 0.22 0.24 0.26 0.30 0.30 0.26 0.21 0.16 0.11
0.00 0.00 0.00 0.00 0.00 0.00 0.00 0.00 0.00 0.00 0.00 0.00 0.00 0.00 0.00 0.00 0.01 0.00 0.00 0.01 0.01 0.02 0.03 0.03 0.03 0.03 0.03 0.03 0.03 0.02 0.03 0.06 0.09 0.12 0.14 0.17 0.20 0.23 0.25 0.21 0.14 0.11 0.11 0.08
0.00 0.00 0.00 0.00 0.00 0.00 0.00 0.00 0.00 0.00 0.00 0.00 0.00 0.00 0.00 0.00 0.01 0.01 0.01 0.02 0.03 0.04 0.03 0.02 0.02 0.03 0.03 0.02 0.01 0.02 0.04 0.07 0.09 0.12 0.13 0.11 0.11 0.13 0.14 0.10 0.07 0.07 0.06 0.03
0.00 0.00 0.00 0.00 0.00 0.00 0.00 0.00 0.00 0.00 0.00 0.00 0.00 0.00 0.00 0.00 0.00 0.01 0.02 0.03 0.04 0.04 0.03 0.02 0.02 0.02 0.02 0.01 0.01 0.02 0.04 0.05 0.07 0.10 0.13 0.10 0.08 0.08 0.09 0.07 0.05 0.04 0.02 0.01
0.00 0.00 0.00 0.00 0.00 0.00 0.00 0.00 0.00 0.00 0.00 0.00 0.01 0.06 0.03 0.02 0.02 0.03 0.02 0.02 0.03 0.02 0.01 0.01 0.01 0.01 0.01 0.00 0.00 0.01 0.02 0.03 0.03 0.04 0.06 0.04 0.02 0.02 0.02 0.02 0.01 0.01 0.00 0.00
0.00 0.00 0.00 0.00 0.00 0.00 0.00 0.00 0.00 0.00 0.01 0.01 0.04 0.09 0.07 0.05 0.04 0.02 0.02 0.01 0.01 0.01 0.01 0.00 0.00 0.00 0.00 0.00 0.00 0.00 0.00 0.00 0.00 0.00 0.00 0.00 0.00 0.00 0.00 0.01 0.01 0.01 0.00 0.00
0.00 0.00 0.00 0.00 0.00 0.00 0.00 0.00 0.00 0.00 0.00 0.02 0.02 0.01 0.01 0.02 0.02 0.01 0.00 0.00 0.00 0.00 0.00 0.00 0.00 0.00 0.00 0.00 0.00 0.00 0.00 0.00 0.00 0.00 0.00 0.00 0.00 0.00 0.00 0.00 0.00 0.00 0.00 0.00
0.00 0.00 0.00 0.00 0.00 0.00 0.00 0.00 0.00 0.01 0.01 0.03 0.02 0.01 0.01 0.01 0.00 0.00 0.00 0.00 0.00 0.00 0.00 0.00 0.00 0.00 0.00 0.00 0.00 0.00 0.00 0.00 0.00 0.00 0.00 0.00 0.00 0.00 0.00 0.00 0.00 0.00 0.00 0.00
0.00 0.00 0.00 0.00 0.00 0.00 0.00 0.00 0.00 0.01 0.03 0.03 0.02 0.01 0.00 0.00 0.00 0.00 0.00 0.00 0.00 0.00 0.00 0.00 0.00 0.00 0.00 0.00 0.00 0.00 0.00 0.00 0.00 0.00 0.00 0.00 0.00 0.00 0.00 0.00 0.00 0.00 0.00 0.00
0.00 0.00 0.00 0.00 0.00 0.00 0.00 0.00 0.00 0.01 0.02 0.02 0.01 0.00 0.00 0.00 0.00 0.00 0.00 0.00 0.00 0.00 0.00 0.00 0.00 0.00 0.00 0.00 0.00 0.00 0.00 0.00 0.00 0.00 0.00 0.00 0.00 0.00 0.00 0.00 0.00 0.00 0.00 0.00
0.00 0.00 0.00 0.00 0.00 0.00 0.00 0.00 0.00 0.01 0.01 0.00 0.00 0.00 0.00 0.00 0.00 0.00 0.00 0.00 0.00 0.00 0.00 0.00 0.00 0.00 0.00 0.00 0.00 0.00 0.00 0.00 0.00 0.00 0.00 0.00 0.00 0.00 0.00 0.00 0.00 0.00 0.00 0.01
0.00 0.00 0.00 0.00 0.00 0.00 0.00 0.00 0.00 0.01 0.01 0.00 0.00 0.00 0.00 0.00 0.00 0.00 0.00 0.00 0.00 0.00 0.00 0.00 0.00 0.00 0.00 0.00 0.00 0.00 0.00 0.00 0.00 0.00 0.00 0.00 0.00 0.00 0.00 0.00 0.00 0.00 0.00 0.00
0.00 0.00 0.00 0.00 0.00 0.00 0.00 0.00 0.00 0.01 0.00 0.00 0.00 0.00 0.00 0.00 0.00 0.00 0.00 0.00 0.00 0.00 0.00 0.00 0.00 0.00 0.00 0.00 0.00 0.00 0.00 0.00 0.00 0.00 0.00 0.00 0.00 0.00 0.00 0.00 0.00 0.00 0.00 0.00
0.00 0.00 0.00 0.00 0.00 0.00 0.00 0.00 0.00 0.00 0.00 0.00 0.00 0.00 0.00 0.00 0.00 0.00 0.00 0.00 0.00 0.00 0.00 0.00 0.00 0.00 0.00 0.00 0.00 0.00 0.00 0.00 0.00 0.00 0.00 0.00 0.00 0.00 0.00 0.00 0.00 0.00 0.00 0.00
0.00 0.00 0.00 0.00 0.00 0.00 0.00 0.00 0.00 0.00 0.00 0.00 0.00 0.00 0.00 0.00 0.00 0.00 0.00 0.00 0.00 0.00 0.00 0.00 0.00 0.01 0.00 0.00 0.00 0.00 0.00 0.00 0.00 0.00 0.00 0.00 0.00 0.00 0.00 0.00 0.00 0.00 0.00 0.00
0.00 0.00 0.00 0.00 0.00 0.00 0.00 0.00 0.00 0.00 0.00 0.00 0.00 0.00 0.00 0.00 0.00 0.00 0.00 0.00 0.00 0.00 0.00 0.00 0.01 0.01 0.00 0.00 0.00 0.00 0.00 0.00 0.00 0.00 0.00 0.00 0.00 0.00 0.00 0.00 0.00 0.00 0.00 0.00
0.00 0.00 0.00 0.00 0.00 0.01 0.01 0.00 0.00 0.00 0.00 0.00 0.00 0.00 0.00 0.00 0.00 0.00 0.00 0.00 0.00 0.00 0.00 0.00 0.01 0.01 0.00 0.00 0.00 0.00 0.00 0.00 0.00 0.00 0.00 0.00 0.00 0.00 0.00 0.00 0.00 0.00 0.00 0.00
0.00 0.00 0.00 0.00 0.01 0.01 0.00 0.00 0.00 0.00 0.00 0.00 0.00 0.00 0.00 0.00 0.00 0.00 0.00 0.00 0.00 0.00 0.00 0.00 0.01 0.01 0.00 0.00 0.00 0.00 0.00 0.00 0.00 0.00 0.00 0.00 0.00 0.00 0.00 0.00 0.00 0.00 0.00 0.00
0.00 0.00 0.00 0.01 0.01 0.00 0.00 0.00 0.00 0.00 0.00 0.00 0.00 0.00 0.00 0.00 0.00 0.00 0.00 0.00 0.00 0.00 0.00 0.00 0.01 0.01 0.01 0.00 0.00 0.00 0.00 0.00 0.00 0.00 0.00 0.00 0.00 0.00 0.00 0.00 0.00 0.00 0.00 0.00
0.00 0.01 0.01 0.01 0.01 0.00 0.00 0.00 0.00 0.00 0.00 0.00 0.00 0.00 0.00 0.00 0.00 0.00 0.00 0.00 0.00 0.00 0.00 0.00 0.00 0.01 0.01 0.01 0.00 0.00 0.00 0.00 0.00 0.00 0.00 0.00 0.00 0.00 0.00 0.00 0.00 0.00 0.00 0.00
0.00 0.01 0.01 0.01 0.00 0.00 0.00 0.00 0.00 0.00 0.00 0.00 0.00 0.00 0.00 0.00 0.00 0.00 0.00 0.00 0.00 0.01 0.00 0.00 0.00 0.01 0.01 0.01 0.00 0.00 0.00 0.00 0.00 0.00 0.00 0.00 0.00 0.00 0.00 0.00 0.00 0.00 0.00 0.00
0.00 0.01 0.00 0.00 0.00 0.00 0.00 0.00 0.00 0.00 0.00 0.00 0.00 0.00 0.00 0.00 0.00 0.00 0.00 0.00 0.00 0.01 0.00 0.00 0.00 0.01 0.01 0.00 0.00 0.00 0.00 0.00 0.00 0.00 0.00 0.00 0.00 0.00 0.00 0.00 0.00 0.00 0.00 0.00
0.00 0.00 0.00 0.00 0.00 0.00 0.00 0.00 0.00 0.00 0.00 0.00 0.00 0.00 0.00 0.00 0.00 0.00 0.00 0.00 0.00 0.00 0.00 0.00 0.00 0.00 0.00 0.00 0.00 0.00 0.00 0.01 0.01 0.02 0.02 0.02 0.02 0.03 0.03 0.02 0.02 0.01 0.01 0.00
0.00 0.00 0.00 0.00 0.00 0.00 0.00 0.00 0.00 0.00 0.00 0.00 0.00 0.00 0.00 0.00 0.00 0.00 0.00 0.00 0.00 0.00 0.00 0.00 0.00 0.00 0.00 0.00 0.00 0.01 0.02 0.03 0.05 0.06 0.06 0.05 0.05 0.05 0.05 0.05 0.05 0.04 0.03 0.02
0.00 0.00 0.00 0.00 0.00 0.00 0.00 0.00 0.00 0.00 0.00 0.00 0.00 0.00 0.00 0.00 0.00 0.00 0.00 0.00 0.00 0.00 0.00 0.00 0.00 0.00 0.00 0.00 0.01 0.03 0.05 0.05 0.06 0.06 0.06 0.06 0.06 0.07 0.08 0.09 0.08 0.08 0.07 0.05
0.00 0.00 0.00 0.00 0.00 0.00 0.00 0.00 0.00 0.00 0.00 0.00 0.00 0.00 0.00 0.00 0.00 0.00 0.00 0.00 0.00 0.00 0.00 0.00 0.00 0.00 0.00 0.01 0.03 0.05 0.05 0.06 0.07 0.08 0.09 0.08 0.08 0.09 0.09 0.09 0.09 0.09 0.08 0.05
MSLP
1023.31 1023.13 1023.05 1023.06 1023.16 1023.29 1023.43 1023.53 1023.56 1023.51 1023.39 1023.23 1023.05 1022.90 1022.80 1022.75 1022.75 1022.77 1022.78 1022.72 1022.57 1022.33 1021.98 1021.56 1021.08 1020.58 1020.08 1019.60 1019.11 1018.60 1018.03 1017.38 1016.62 1015.74 1014.77 1013.75 1012.75 1011.83 1011.05 1010.46 1010.09 1009.95 1009.99 1010.18
1024.09 1023.98 1023.94 1023.96 1024.04 1024.14 1024.23 1024.29 1024.28 1024.20 1024.06 1023.90 1023.74 1023.62 1023.56 1023.56 1023.62 1023.70 1023.77 1023.78 1023.70 1023.51 1023.20 1022.78 1022.29 1021.74 1021.16 1020.57 1019.98 1019.37 1018.71 1018.01 1017.23 1016.39 1015.49 1014.57 1013.68 1012.86 1012.16 1011.62 1011.26 1011.08 1011.05 1011.14
1024.97 1024.92 1024.89 1024.90 1024.94 1024.98 1025.02 1025.02 1024.98 1024.88 1024.75 1024.61 1024.49 1024.42 1024.42 1024.48 1024.59 1024.73 1024.84 1024.90 1024.85 1024.68 1024.37 1023.94 1023.40 1022.78 1022.12 1021.43 1020.73 1020.03 1019.31 1018.57 1017.80 1017.01 1016.20 1015.39 1014.62 1013.92 1013.32 1012.84 1012.50 1012.28 1012.18 1012.17
1025.88 1025.85 1025.82 1025.79 1025.78 1025.77 1025.75 1025.70 1025.63 1025.54 1025.43 1025.34 1025.27 1025.27 1025.32 1025.44 1025.60 1025.77 1025.90 1025.97 1025.92 1025.74 1025.41 1024.94 1024.34 1023.66 1022.92 1022.14 1021.35 1020.57 1019.81 1019.05 1018.31 1017.58 1016.86 1016.17 1015.53 1014.94 1014.44 1014.02 1013.69 1013.45 1013.28 1013.17
1026.72 1026.69 1026.63 1026.56 1026.49 1026.42 1026.35 1026.28 1026.21 1026.14 1026.09 1026.05 1026.06 1026.12 1026.23 1026.39 1026.58 1026.75 1026.88 1026.93 1026.85 1026.63 1026.26 1025.74 1025.09 1024.35 1023.54 1022.70 1021.85 1021.02 1020.23 1019.48 1018.76 1018.09 1017.46 1016.88 1016.34 1015.85 1015.42 1015.05 1014.74 1014.47 1014.25 1014.06
1027.38 1027.33 1027.23 1027.12 1027.00 1026.89 1026.81 1026.74 1026.70 1026.68 1026.69 1026.74 1026.82 1026.95 1027.11 1027.30 1027.48 1027.63 1027.73 1027.73 1027.60 1027.33 1026.90 1026.34 1025.65 1024.87 1024.02 1023.15 1022.27 1021.43 1020.63 1019.89 1019.21 1018.58 1018.02 1017.51 1017.05 1016.64 1016.26 1015.92 1015.61 1015.32 1015.06 1014.81
1027.78 1027.70 1027.56 1027.41 1027.27 1027.16 1027.09 1027.07 1027.09 1027.16 1027.26 1027.40 1027.56 1027.74 1027.94 1028.12 1028.28 1028.39 1028.43 1028.36 1028.17 1027.84 1027.37 1026.78 1026.07 1025.28 1024.43 1023.55 1022.68 1021.85 1021.06 1020.33 1019.68 1019.09 1018.56 1018.09 1017.68 1017.30 1016.95 1016.62 1016.31 1016.00 1015.70 1015.41
1027.89 1027.77 1027.61 1027.45 1027.32 1027.24 1027.23 1027.29 1027.42 1027.59 1027.80 1028.03 1028.26 1028.49 1028.70 1028.87 1028.99 1029.03 1028.99 1028.85 1028.59 1028.21 1027.72 1027.11 1026.41 1025.64 1024.81 1023.97 1023.13 1022.32 1021.55 1020.85 1020.21 1019.63 1019.12 1018.66 1018.25 1017.88 1017.53 1017.20 1016.87 1016.55 1016.22 1015.91
1027.74 1027.59 1027.42 1027.28 1027.20 1027.20 1027.29 1027.46 1027.71 1028.01 1028.33 1028.65 1028.96 1029.22 1029.42 1029.56 1029.62 1029.59 1029.47 1029.25 1028.93 1028.51 1028.00 1027.40 1026.73 1025.99 1025.22 1024.43 1023.64 1022.87 1022.13 1021.44 1020.81 1020.23 1019.71 1019.24 1018.81 1018.42 1018.05 1017.70 1017.35 1017.01 1016.68 1016.35
1027.42 1027.25 1027.10 1027.01 1027.01 1027.11 1027.33 1027.64 1028.02 1028.45 1028.88 1029.29 1029.64 1029.92 1030.11 1030.20 1030.19 1030.09 1029.89 1029.60 1029.23 1028.78 1028.26 1027.69 1027.05 1026.38 1025.67 1024.94 1024.21 1023.48 1022.77 1022.10 1021.46 1020.87 1020.33 1019.83 1019.37 1018.95 1018.55 1018.17 1017.81 1017.45 1017.11 1016.78
1027.05 1026.89 1026.77 1026.76 1026.85 1027.08 1027.43 1027.88 1028.40 1028.94 1029.46 1029.94 1030.32 1030.60 1030.77 1030.81 1030.73 1030.56 1030.29 1029.94 1029.53 1029.06 1028.55 1028.00 1027.41 1026.79 1026.14 1025.47 1024.79 1024.10 1023.42 1022.76 1022.12 1021.52 1020.95 1020.42 1019.93 1019.47 1019.05 1018.65 1018.26 1017.90 1017.55 1017.22
1026.76 1026.61 1026.56 1026.63 1026.84 1027.19 1027.67 1028.24 1028.86 1029.49 1030.08 1030.59 1030.99 1031.26 1031.39 1031.38 1031.25 1031.01 1030.68 1030.29 1029.85 1029.37 1028.86 1028.32 1027.77 1027.19 1026.59 1025.96 1025.32 1024.67 1024.01 1023.36 1022.72 1022.11 1021.53 1020.98 1020.47 1019.99 1019.54 1019.12 1018.73 1018.35 1017.99 1017.66
1026.64 1026.54 1026.55 1026.71 1027.02 1027.48 1028.06 1028.72 1029.41 1030.09 1030.72 1031.24 1031.63 1031.87 1031.96 1031.91 1031.73 1031.44 1031.07 1030.64 1030.17 1029.68 1029.17 1028.64 1028.10 1027.54 1026.96 1026.37 1025.75 1025.12 1024.48 1023.84 1023.22 1022.61 1022.02 1021.47 1020.95 1020.46 1020.01 1019.58 1019.17 1018.78 1018.41 1018.06
1026.72 1026.68 1026.78 1027.03 1027.43 1027.97 1028.61 1029.32 1030.04 1030.74 1031.35 1031.86 1032.21 1032.42 1032.47 1032.38 1032.16 1031.84 1031.44 1030.98 1030.49 1029.98 1029.45 1028.91 1028.36 1027.80 1027.22 1026.63 1026.03 1025.41 1024.79 1024.17 1023.56 1022.96 1022.40 1021.86 1021.35 1020.87 1020.41 1019.98 1019.56 1019.16 1018.77 1018.39
1027.01 1027.06 1027.24 1027.57 1028.04 1028.63 1029.30 1030.02 1030.73 1031.39 1031.97 1032.43 1032.74 1032.90 1032.92 1032.79 1032.54 1032.20 1031.78 1031.30 1030.78 1030.24 1029.68 1029.11 1028.53 1027.95 1027.35 1026.75 1026.14 1025.53 1024.92 1024.32 1023.73 1023.17 1022.63 1022.11 1021.62 1021.16 1020.71 1020.27 1019.85 1019.43 1019.02 1018.62
1027.46 1027.60 1027.87 1028.28 1028.80 1029.41 1030.08 1030.77 1031.44 1032.04 1032.56 1032.95 1033.21 1033.32 1033.30 1033.14 1032.87 1032.51 1032.07 1031.56 1031.02 1030.44 1029.84 1029.23 1028.60 1027.97 1027.34 1026.71 1026.09 1025.48 1024.88 1024.30 1023.75 1023.22 1022.71 1022.23 1021.76 1021.31 1020.86 1020.43 1019.99 1019.56 1019.13 1018.71
1027.99 1028.25 1028.61 1029.09 1029.65 1030.27 1030.91 1031.55 1032.15 1032.67 1033.10 1033.42 1033.62 1033.68 1033.62 1033.44 1033.15 1032.77 1032.30 1031.78 1031.20 1030.58 1029.93 1029.26 1028.58 1027.90 1027.22 1026.56 1025.92 1025.30 1024.71 1024.15 1023.62 1023.12 1022.64 1022.17 1021.72 1021.28 1020.83 1020.39 1019.94 1019.49 1019.05 1018.61
1028.55 1028.93 1029.40 1029.94 1030.53 1031.14 1031.75 1032.32 1032.83 1033.27 1033.61 1033.85 1033.97 1033.99 1033.89 1033.68 1033.37 1032.97 1032.49 1031.93 1031.31 1030.64 1029.94 1029.21 1028.47 1027.73 1027.01 1026.31 1025.65 1025.02 1024.43 1023.87 1023.36 1022.87 1022.40 1021.94 1021.49 1021.03 1020.58 1020.11 1019.65 1019.20 1018.75 1018.32
1029.09 1029.60 1030.17 1030.78 1031.39 1031.98 1032.54 1033.04 1033.47 1033.82 1034.07 1034.23 1034.29 1034.24 1034.10 1033.86 1033.53 1033.11 1032.60 1032.01 1031.36 1030.64 1029.88 1029.10 1028.30 1027.51 1026.74 1026.00 1025.31 1024.66 1024.05 1023.49 1022.96 1022.46 1021.97 1021.49 1021.01 1020.53 1020.04 1019.56 1019.08 1018.62 1018.19 1017.79
1029.60 1030.24 1030.90 1031.55 1032.18 1032.76 1033.27 1033.70 1034.05 1034.31 1034.48 1034.56 1034.54 1034.45 1034.26 1033.99 1033.63 1033.18 1032.64 1032.02 1031.33 1030.57 1029.77 1028.93 1028.08 1027.25 1026.43 1025.65 1024.92 1024.23 1023.59 1022.99 1022.42 1021.87 1021.33 1020.80 1020.27 1019.74 1019.22 1018.70 1018.22 1017.77 1017.36 1017.01
1030.08 1030.82 1031.56 1032.26 1032.89 1033.45 1033.91 1034.27 1034.54 1034.71 1034.80 1034.81 1034.73 1034.58 1034.35 1034.05 1033.65 1033.17 1032.61 1031.96 1031.23 1030.44 1029.59 1028.72 1027.83 1026.95 1026.09 1025.27 1024.48 1023.74 1023.04 1022.37 1021.73 1021.10 1020.48 1019.87 1019.26 1018.67 1018.09 1017.56 1017.07 1016.64 1016.28 1016.00
1030.54 1031.36 1032.15 1032.87 1033.49 1034.02 1034.43 1034.73 1034.92 1035.02 1035.04 1034.97 1034.84 1034.64 1034.36 1034.02 1033.59 1033.08 1032.49 1031.81 1031.06 1030.25 1029.38 1028.48 1027.56 1026.64 1025.74 1024.86 1024.02 1023.20 1022.41 1021.65 1020.90 1020.16 1019.44 1018.72 1018.02 1017.35 1016.73 1016.17 1015.69 1015.29 1015.00 1014.81
1030.98 1031.85 1032.66 1033.37 1033.97 1034.45 1034.81 1035.05 1035.18 1035.21 1035.16 1035.04 1034.85 1034.60 1034.28 1033.90 1033.45 1032.92 1032.31 1031.62 1030.85 1030.02 1029.15 1028.23 1027.29 1026.34 1025.39 1024.46 1023.54 1022.63 1021.74 1020.86 1019.98 1019.11 1018.26 1017.42 1016.63 1015.89 1015.22 1014.64 1014.18 1013.84 1013.62 1013.53
1031.39 1032.27 1033.06 1033.75 1034.32 1034.75 1035.05 1035.23 1035.30 1035.27 1035.17 1035.00 1034.77 1034.47 1034.13 1033.72 1033.25 1032.70 1032.08 1031.39 1030.63 1029.80 1028.93 1028.00 1027.05 1026.08 1025.09 1024.09 1023.09 1022.09 1021.08 1020.06 1019.05 1018.04 1017.05 1016.10 1015.22 1014.41 1013.70 1013.13 1012.70 1012.41 1012.29 1012.29
1031.73 1032.59 1033.35 1033.99 1034.51 1034.89 1035.14 1035.27 1035.29 1035.23 1035.09 1034.88 1034.62 1034.30 1033.93 1033.51 1033.03 1032.48 1031.87 1031.18 1030.44 1029.62 1028.76 1027.84 1026.89 1025.89 1024.87 1023.81 1022.73 1021.62 1020.50 1019.35 1018.21 1017.07 1015.96 1014.91 1013.94 1013.08 1012.36 1011.79 1011.40 1011.19 1011.14 1011.25
1031.97 1032.78 1033.48 1034.08 1034.54 1034.87 1035.08 1035.18 1035.18 1035.09 1034.93 1034.71 1034.44 1034.12 1033.74 1033.32 1032.84 1032.30 1031.70 1031.05 1030.32 1029.54 1028.69 1027.79 1026.84 1025.83 1024.78 1023.67 1022.52 1021.32 1020.09 1018.83 1017.57 1016.32 1015.12 1013.98 1012.96 1012.07 1011.35 1010.81 1010.46 1010.31 1010.34 1010.53
1032.07 1032.81 1033.46 1034.00 1034.42 1034.72 1034.91 1035.00 1034.99 1034.91 1034.76 1034.55 1034.28 1033.97 1033.61 1033.20 1032.73 1032.22 1031.65 1031.01 1030.32 1029.57 1028.75 1027.87 1026.93 1025.92 1024.85 1023.71 1022.50 1021.24 1019.93 1018.59 1017.25 1015.92 1014.65 1013.47 1012.41 1011.51 1010.80 1010.29 1009.99 1009.89 1009.98 1010.22
Thickness
5556 5550 5542 5532 5520 5510 5495 5478 5453 5445 5431 5423 5409 5398 5389 5380 5372 5364 5356 5351 5347 5344 5345 5345 5342 5337 5330 5325 5320 5317 5317 5316 5314 5312 5313 5318 5326 5335 5345 5355 5364 5371 5375 5379
5545 5546 5533 5520 5511 5498 5476 5458 5438 5421 5412 5405 5395 5386 5374 5361 5350 5340 5336 5332 5329 5328 5330 5328 5323 5319 5316 5313 5311 5309 5309 5308 5307 5306 5307 5311 5319 5326 5334 5341 5348 5354 5358 5362
5515 5522 5508 5503 5485 5467 5446 5430 5413 5394 5388 5385 5377 5367 5355 5345 5328 5322 5318 5315 5312 5311 5310 5309 5307 5305 5304 5303 5301 5300 5300 5301 5301 5302 5305 5307 5310 5315 5320 5324 5329 5334 5338 5343
5493 5484 5460 5471 5466 5448 5429 5419 5402 5391 5381 5372 5363 5356 5347 5334 5316 5310 5305 5302 5301 5299 5297 5294 5292 5292 5293 5292 5292 5292 5292 5293 5294 5296 5299 5301 5303 5306 5308 5311 5315 5318 5321 5324
5462 5452 5457 5464 5444 5429 5411 5402 5398 5379 5372 5365 5355 5350 5346 5324 5309 5301 5295 5291 5289 5288 5284 5281 5280 5281 5283 5283 5284 5285 5286 5286 5287 5289 5291 5292 5294 5296 5299 5301 5303 5305 5306 5310
5457 5432 5426 5435 5426 5417 5399 5390 5388 5374 5362 5350 5336 5329 5326 5311 5301 5295 5289 5285 5281 5279 5276 5273 5272 5273 5274 5274 5275 5277 5279 5279 5280 5281 5283 5285 5287 5289 5291 5293 5295 5298 5300 5304
5442 5424 5426 5429 5420 5403 5375 5365 5370 5363 5348 5333 5320 5312 5305 5299 5294 5288 5283 5278 5274 5270 5267 5264 5264 5264 5263 5264 5265 5268 5270 5270 5271 5271 5273 5275 5278 5280 5283 5286 5289 5291 5294 5296
5440 5412 5404 5417 5404 5384 5374 5373 5364 5348 5333 5322 5314 5307 5300 5294 5289 5283 5276 5271 5266 5261 5258 5255 5255 5253 5252 5251 5253 5255 5257 5257 5258 5259 5261 5263 5264 5267 5270 5273 5276 5279 5282 5283
5437 5423 5420 5410 5396 5386 5376 5363 5349 5335 5325 5315 5307 5299 5292 5287 5282 5274 5267 5261 5256 5252 5248 5247 5245 5243 5240 5239 5240 5241 5242 5243 5243 5244 5245 5248 5250 5251 5254 5255 5257 5260 5263 5265
5430 5422 5415 5405 5394 5381 5364 5348 5336 5325 5315 5307 5297 5291 5285 5280 5273 5265 5257 5251 5246 5242 5238 5236 5234 5232 5228 5226 5225 5226 5226 5227 5228 5229 5229 5230 5233 5235 5235 5236 5236 5239 5241 5242
5422 5416 5409 5395 5381 5370 5354 5341 5329 5317 5310 5300 5291 5285 5278 5271 5263 5253 5246 5240 5236 5230 5227 5224 5222 5220 5217 5213 5212 5211 5211 5211 5212 5214 5213 5212 5212 5214 5218 5219 5220 5221 5220 5221
5415 5407 5390 5381 5372 5359 5344 5331 5319 5309 5303 5294 5286 5278 5271 5261 5251 5242 5235 5229 5225 5221 5217 5212 5209 5206 5203 5199 5198 5196 5196 5196 5196 5196 5196 5196 5194 5194 5196 5199 5201 5202 5203 5204
5413 5400 5386 5375 5364 5350 5338 5323 5311 5302 5294 5286 5278 5269 5259 5249 5241 5233 5226 5220 5215 5211 5206 5200 5195 5191 5188 5185 5182 5180 5178 5178 5177 5176 5176 5175 5175 5174 5175 5176 5176 5178 5180 5182
5406 5392 5376 5363 5353 5345 5329 5317 5306 5297 5287 5278 5268 5258 5248 5239 5232 5225 5218 5212 5207 5200 5193 5186 5180 5176 5172 5167 5164 5159 5156 5155 5153 5151 5150 5150 5150 5150 5151 5152 5153 5152 5154 5157
5394 5375 5361 5355 5349 5338 5323 5312 5300 5289 5278 5268 5258 5248 5238 5230 5223 5217 5211 5204 5196 5188 5181 5173 5165 5159 5154 5147 5142 5137 5134 5132 5129 5126 5124 5123 5123 5123 5124 5124 5125 5127 5129 5131
5377 5363 5356 5348 5336 5323 5310 5299 5289 5279 5268 5258 5248 5239 5230 5223 5216 5209 5200 5191 5183 5174 5167 5158 5149 5144 5139 5132 5126 5122 5117 5115 5113 5109 5104 5102 5100 5099 5098 5097 5097 5099 5101 5104
5366 5356 5347 5336 5324 5313 5301 5290 5280 5270 5259 5249 5240 5233 5225 5217 5207 5197 5187 5178 5170 5162 5154 5148 5142 5138 5133 5127 5121 5116 5111 5107 5105 5099 5094 5091 5088 5085 5082 5080 5078 5079 5079 5081
5359 5350 5340 5329 5316 5305 5294 5282 5271 5262 5252 5243 5236 5227 5218 5207 5195 5185 5177 5170 5164 5157 5152 5148 5144 5140 5134 5128 5123 5117 5111 5106 5101 5097 5092 5088 5085 5082 5078 5074 5072 5071 5068 5067
5349 5339 5327 5315 5305 5296 5285 5274 5264 5256 5248 5240 5230 5218 5207 5197 5187 5179 5173 5168 5164 5159 5156 5153 5151 5145 5138 5133 5129 5121 5114 5108 5103 5099 5094 5091 5088 5082 5078 5075 5073 5069 5066 5064
5339 5329 5315 5301 5293 5286 5277 5269 5261 5252 5242 5234 5223 5210 5199 5190 5184 5179 5175 5171 5167 5163 5163 5161 5156 5149 5143 5138 5135 5127 5119 5113 5108 5103 5099 5094 5090 5086 5082 5078 5075 5071 5067 5063
5331 5319 5306 5295 5288 5283 5276 5266 5255 5244 5236 5228 5216 5203 5194 5188 5185 5182 5179 5176 5174 5171 5169 5166 5160 5154 5149 5146 5141 5132 5126 5120 5114 5108 5103 5098 5094 5089 5085 5080 5077 5073 5069 5065
5323 5313 5303 5294 5287 5277 5266 5256 5247 5238 5230 5221 5211 5200 5193 5190 5189 5187 5185 5181 5180 5178 5176 5171 5166 5162 5158 5155 5147 5139 5133 5126 5120 5114 5109 5103 5098 5093 5088 5083 5078 5075 5071 5067
5321 5311 5301 5291 5281 5268 5259 5249 5240 5232 5223 5215 5207 5199 5194 5193 5193 5191 5190 5188 5186 5185 5182 5178 5174 5172 5168 5161 5153 5146 5139 5133 5126 5120 5114 5109 5103 5097 5092 5086 5081 5077 5073 5069
5313 5301 5290 5281 5272 5262 5252 5242 5235 5227 5219 5211 5206 5201 5198 5197 5196 5195 5193 5193 5192 5191 5188 5185 5183 5179 5174 5166 5159 5152 5145 5138 5132 5127 5123 5118 5113 5107 5100 5094 5088 5082 5077 5071
5299 5290 5282 5274 5267 5259 5249 5239 5231 5223 5217 5211 5208 5205 5203 5201 5199 5199 5198 5197 5197 5196 5194 5191 5187 5184 5178 5173 5166 5159 5154 5149 5144 5140 5135 5130 5125 5119 5113 5106 5098 5091 5084 5077
5293 5286 5279 5275 5267 5257 5248 5241 5234 5225 5218 5212 5210 5208 5207 5205 5205 5204 5203 5203 5202 5201 5198 5195 5192 5189 5185 5179 5174 5170 5167 5165 5162 5156 5151 5146 5143 5138 5134 5127 5117 5106 5095 5085
5292 5283 5277 5271 5263 5256 5248 5240 5231 5223 5215 5211 5211 5210 5209 5209 5208 5208 5208 5207 5207 5205 5202 5200 5198 5194 5190 5186 5183 5181 5180 5178 5175 5170 5166 5163 5160 5157 5154 5149 5139 5125 5109 5097